STARLINK B

Last updated on June 19, 2020, 12:02 a.m. UTC

1 45731U 20038B   20170.75001157  .03147853  88228-2  70298-2 0  9998
2 45731  53.0020 271.8619 0094245  68.1275 134.2465 15.91364113  1986

Satellite is not in orbit.